Lewistown, MT

4:12 AM MST on November 21, 2017 (GMT -0700)
Lewistown Municipal

Weather History for KLWT - July, 2013

Change the Weather History Date:

Wednesday, July 24, 2013

  Actual Average Record
Temperature  
Mean Temperature 73 °F 67 °F  
Max Temperature 90 °F 83 °F 101 °F (1929)
Min Temperature 55 °F 52 °F 33 °F (1896)
Degree Days  
Heating Degree Days 0 1  
Month to date heating degree days 10 64  
Since 1 June heating degree days 230 291  
Since 1 July heating degree days 10 64  
Cooling Degree Days 8 4  
Month to date cooling degree days 99 64  
Year to date cooling degree days 118 86  
Since 1 June cooling degree days 115 84  
Growing Degree Days 22 (Base 50)    
Moisture  
Dew Point 49 °F    
Average Humidity 48    
Maximum Humidity 77    
Minimum Humidity 19    
Precipitation  
Precipitation 0.09 in 0.05 in 1.56 in (1934)
Month to date precipitation 1.37 1.56  
Year to date precipitation 15.56 10.90  
Snow  
Snow 0.00 in - - ()
Snow Depth 0.00 in    
Sea Level Pressure  
Sea Level Pressure 30.00 in    
Wind  
Wind Speed 7 mph (East)    
Max Wind Speed 25 mph    
Max Gust Speed 31 mph    
Visibility 10 miles    
Events Rain    
T = Trace of Precipitation, MM = Missing Value Source: NWS Daily Summary

Daily Weather History Graph

Daily Weather History Graph

Search for Another Location

Airport or City:

Trip Planner

Search our weather history database for the weather conditions in past years. The results will help you decide how hot, cold, wet, or windy it might be!

Date:

Astronomy

Jul. 24, 2013 Rise Set
Actual Time 5:47 AM MDT 9:00 PM MDT
Civil Twilight 5:11 AM MDT 9:36 PM MDT
Nautical Twilight 4:23 AM MDT 10:24 PM MDT
Astronomical Twilight 3:23 AM MDT 11:23 PM MDT
Moon 9:52 PM MDT (7/24) 8:25 AM MDT (7/24)
Length of Visible Light 16h 25m
Length of Day
15h 12m
Waning Gibbous, 94% of the Moon is Illuminated
Jul 24
Waning Gibbous
Jul 29
Last Quarter
Aug 6
New
Aug 14
First Quarter
Aug 20
Full

Hourly Weather History & Observations

Time (MDT) Temp. Dew Point Humidity Pressure Visibility Wind Dir Wind Speed Gust Speed Precip Events Conditions
12:54 AM 63.0 °F 51.1 °F 65% 30.07 in 10.0 mi SSE 9.2 mph - N/A   Clear
1:54 AM 60.1 °F 51.1 °F 72% 30.07 in 10.0 mi ESE 5.8 mph - N/A   Scattered Clouds
2:54 AM 55.9 °F 48.0 °F 75% 30.06 in 10.0 mi NE 5.8 mph - N/A   Partly Cloudy
3:54 AM 55.9 °F 48.0 °F 75% 30.05 in 10.0 mi South 3.5 mph - N/A   Clear
4:54 AM 55.0 °F 48.0 °F 77% 30.05 in 10.0 mi SE 5.8 mph - N/A   Clear
5:54 AM 57.0 °F 48.0 °F 72% 30.05 in 10.0 mi ESE 5.8 mph - N/A   Clear
6:54 AM 60.1 °F 48.0 °F 64% 30.04 in 10.0 mi SSE 4.6 mph - N/A   Clear
7:54 AM 64.9 °F 48.0 °F 54% 30.04 in 10.0 mi East 3.5 mph - N/A   Clear
8:54 AM 72.0 °F 50.0 °F 46% 30.03 in 10.0 mi ENE 4.6 mph - N/A   Clear
9:54 AM 77.0 °F 50.0 °F 39% 30.01 in 10.0 mi NNE 5.8 mph - N/A   Clear
10:54 AM 80.1 °F 48.0 °F 32% 29.99 in 10.0 mi Calm Calm - N/A   Clear
11:54 AM 82.0 °F 52.0 °F 35% 29.97 in 10.0 mi East 8.1 mph - N/A   Clear
12:54 PM 84.9 °F 48.0 °F 28% 29.95 in 10.0 mi Variable 4.6 mph - N/A   Clear
1:54 PM 87.1 °F 46.9 °F 25% 29.92 in 10.0 mi ESE 8.1 mph - N/A   Clear
2:54 PM 86.0 °F 45.0 °F 24% 29.92 in 10.0 mi NNE 5.8 mph - N/A   Scattered Clouds
3:54 PM 89.1 °F 42.1 °F 19% 29.89 in 10.0 mi Variable 4.6 mph - N/A   Partly Cloudy
4:54 PM 88.0 °F 41.0 °F 19% 29.89 in 10.0 mi Calm Calm - 0.00 in   Mostly Cloudy
5:54 PM 89.1 °F 43.0 °F 20% 29.87 in 10.0 mi East 8.1 mph - N/A   Clear
6:54 PM 84.0 °F 50.0 °F 31% 29.87 in 10.0 mi North 8.1 mph - N/A   Clear
7:54 PM 81.0 °F 51.1 °F 35% 29.88 in 10.0 mi NNE 5.8 mph - N/A   Clear
8:54 PM 75.9 °F 50.0 °F 40% 29.91 in 10.0 mi NNE 17.3 mph 23.0 mph N/A   Clear
9:13 PM 73.4 °F 50.0 °F 44% 30.06 in 10.0 mi East 10.4 mph - N/A   Partly Cloudy
9:54 PM 69.1 °F 51.1 °F 53% 29.98 in 10.0 mi ESE 11.5 mph 21.9 mph N/A   Clear
10:54 PM 66.0 °F 54.0 °F 65% 30.10 in 10.0 mi North 20.7 mph 29.9 mph N/A   Partly Cloudy
11:06 PM 64.4 °F 53.6 °F 68% 30.23 in 9.0 mi NNE 17.3 mph 31.1 mph 0.01 in Rain Light Rain
11:54 PM 61.0 °F 55.0 °F 81% 30.06 in 9.0 mi SE 10.4 mph - 0.09 in Rain Light Rain